When you browse on this site, cookies collect data to enhance your experience and personalize the content and advertising you see.
Visit our Privacy Policy to learn more. By continuing to use the site, you agree to this use of cookies and data.
  • In United Kingdom
  • List of Countries
  • For 7 days
  • Water Temperature
  • Weather Map
  • Weather Widgets
  • user-avatar
    Login

    Hourly Weather Potosi

    Today, 18 January, Saturday

    Time Temperature Precipitation Wind Pressure Humidity
    00:00 +8°C° 0 mm 2 mps 469 mmHg 83%
    01:00 +8°C° 0 mm 2 mps 469 mmHg 85%
    02:00 +8°C° 0 mm 1 mps 468 mmHg 87%
    03:00 +7°C° 0 mm 2 mps 468 mmHg 88%
    04:00 +7°C° 0 mm 2 mps 468 mmHg 89%
    05:00 +7°C° 0 mm 2 mps 468 mmHg 90%
    06:00 +7°C° 0 mm 2 mps 469 mmHg 87%
    07:00 +8°C° 0 mm 2 mps 469 mmHg 84%
    08:00 +8°C° 0 mm 2 mps 469 mmHg 82%
    09:00 +9°C° 0.1 mm 2 mps 470 mmHg 75%
    10:00 +12°C° 0.1 mm 2 mps 471 mmHg 69%
    11:00 +12°C° 0.1 mm 3 mps 471 mmHg 63%
    12:00 +13°C° 0.6 mm 3 mps 471 mmHg 61%
    13:00 +13°C° 0.6 mm 3 mps 471 mmHg 59%
    14:00 +14°C° 0.6 mm 4 mps 471 mmHg 57%
    15:00 +14°C° 0.8 mm 4 mps 470 mmHg 60%
    16:00 +13°C° 0.8 mm 4 mps 470 mmHg 62%
    17:00 +13°C° 0.8 mm 4 mps 469 mmHg 65%
    18:00 +12°C° 0.6 mm 4 mps 469 mmHg 69%
    19:00 +11°C° 0.6 mm 3 mps 469 mmHg 73%
    20:00 +10°C° 0.6 mm 3 mps 469 mmHg 78%
    21:00 +10°C° 0.2 mm 3 mps 469 mmHg 79%
    22:00 +9°C° 0.2 mm 2 mps 469 mmHg 81%
    23:00 +9°C° 0.2 mm 2 mps 469 mmHg 83%

    Tomorrow, 19 January, Sunday

    Time Temperature Precipitation Wind Pressure Humidity
    00:00 +10°C° 0.1 mm 1 mps 469 mmHg 84%
    01:00 +9°C° 0.1 mm 1 mps 468 mmHg 86%
    02:00 +9°C° 0.1 mm 1 mps 468 mmHg 88%
    03:00 +9°C° 0 mm 1 mps 468 mmHg 90%
    04:00 +8°C° 0 mm 1 mps 467 mmHg 91%
    05:00 +8°C° 0 mm 1 mps 467 mmHg 93%
    06:00 +8°C° 0 mm 1 mps 468 mmHg 89%
    07:00 +9°C° 0 mm 1 mps 468 mmHg 85%
    08:00 +9°C° 0 mm 1 mps 469 mmHg 81%
    09:00 +9°C° 0.1 mm 2 mps 470 mmHg 74%
    10:00 +12°C° 0.1 mm 2 mps 470 mmHg 67%
    11:00 +13°C° 0.1 mm 2 mps 471 mmHg 60%
    12:00 +13°C° 0.2 mm 3 mps 471 mmHg 58%
    13:00 +13°C° 0.2 mm 4 mps 471 mmHg 56%
    14:00 +14°C° 0.2 mm 4 mps 471 mmHg 53%
    15:00 +13°C° 0.4 mm 5 mps 470 mmHg 56%
    16:00 +13°C° 0.4 mm 5 mps 470 mmHg 58%
    17:00 +13°C° 0.4 mm 5 mps 469 mmHg 60%
    18:00 +12°C° 0 mm 4 mps 469 mmHg 65%
    19:00 +11°C° 0 mm 3 mps 468 mmHg 70%
    20:00 +10°C° 0 mm 3 mps 468 mmHg 75%
    21:00 +9°C° 0 mm 2 mps 468 mmHg 77%
    22:00 +9°C° 0 mm 2 mps 468 mmHg 79%
    23:00 +10°C° 0 mm 1 mps 468 mmHg 81%

    Day after tomorrow, 20 January, Monday

    Time Temperature Precipitation Wind Pressure Humidity
    00:00 +9°C° 0 mm 1 mps 468 mmHg 83%
    01:00 +9°C° 0 mm 1 mps 468 mmHg 85%
    02:00 +9°C° 0 mm 1 mps 467 mmHg 87%
    03:00 +8°C° 0 mm 1 mps 467 mmHg 89%
    04:00 +8°C° 0 mm 1 mps 467 mmHg 90%
    05:00 +8°C° 0 mm 1 mps 467 mmHg 91%
    06:00 +8°C° 0 mm 1 mps 467 mmHg 87%
    07:00 +9°C° 0 mm 1 mps 468 mmHg 83%
    08:00 +9°C° 0 mm 1 mps 468 mmHg 79%
    09:00 +9°C° 0 mm 2 mps 469 mmHg 71%
    10:00 +12°C° 0 mm 2 mps 470 mmHg 63%
    11:00 +12°C° 0 mm 3 mps 471 mmHg 55%
    12:00 +13°C° 0 mm 3 mps 471 mmHg 53%
    13:00 +14°C° 0 mm 4 mps 471 mmHg 51%
    14:00 +14°C° 0 mm 4 mps 470 mmHg 49%
    15:00 +14°C° 0.1 mm 4 mps 470 mmHg 51%
    16:00 +14°C° 0.1 mm 4 mps 469 mmHg 53%
    17:00 +13°C° 0.1 mm 5 mps 469 mmHg 54%
    18:00 +12°C° 0 mm 4 mps 468 mmHg 60%
    19:00 +11°C° 0 mm 3 mps 468 mmHg 66%
    20:00 +10°C° 0 mm 3 mps 468 mmHg 71%
    21:00 +10°C° 0 mm 2 mps 468 mmHg 74%
    22:00 +9°C° 0 mm 2 mps 468 mmHg 77%
    23:00 +10°C° 0 mm 1 mps 468 mmHg 80%

    21 January, Tuesday

    Time Temperature Precipitation Wind Pressure Humidity
    00:00 +10°C° 0.1 mm 1 mps 468 mmHg 82%
    01:00 +9°C° 0.1 mm 1 mps 467 mmHg 83%
    02:00 +9°C° 0.1 mm 1 mps 467 mmHg 85%
    03:00 +9°C° 0 mm 1 mps 467 mmHg 87%
    04:00 +7°C° 0 mm 0 mps 466 mmHg 88%
    05:00 +7°C° 0 mm 0 mps 466 mmHg 90%
    06:00 +8°C° 0 mm 0 mps 467 mmHg 85%
    07:00 +8°C° 0 mm 0 mps 467 mmHg 80%
    08:00 +10°C° 0 mm 1 mps 468 mmHg 75%
    09:00 +11°C° 0 mm 1 mps 468 mmHg 67%
    10:00 +13°C° 0 mm 1 mps 469 mmHg 58%
    11:00 +14°C° 0 mm 2 mps 470 mmHg 49%
    12:00 +15°C° 0.1 mm 2 mps 470 mmHg 47%
    13:00 +16°C° 0.1 mm 3 mps 469 mmHg 45%
    14:00 +16°C° 0.1 mm 3 mps 469 mmHg 43%
    15:00 +15°C° 0.1 mm 4 mps 469 mmHg 44%
    16:00 +14°C° 0.1 mm 4 mps 468 mmHg 46%
    17:00 +14°C° 0.1 mm 5 mps 467 mmHg 47%
    18:00 +13°C° 0.1 mm 4 mps 467 mmHg 56%
    19:00 +12°C° 0.1 mm 4 mps 467 mmHg 64%
    20:00 +11°C° 0.1 mm 3 mps 467 mmHg 72%
    21:00 +10°C° 0.3 mm 2 mps 467 mmHg 75%
    22:00 +10°C° 0.3 mm 2 mps 467 mmHg 78%
    23:00 +10°C° 0.3 mm 1 mps 468 mmHg 81%

    22 January, Wednesday

    Time Temperature Precipitation Wind Pressure Humidity
    00:00 +10°C° 0.3 mm 1 mps 467 mmHg 83%
    01:00 +9°C° 0.3 mm 1 mps 467 mmHg 85%
    02:00 +9°C° 0.3 mm 1 mps 467 mmHg 86%
    03:00 +9°C° 0.3 mm 1 mps 467 mmHg 86%
    04:00 +9°C° 0.3 mm 1 mps 467 mmHg 85%
    05:00 +9°C° 0.3 mm 1 mps 467 mmHg 84%
    06:00 +9°C° 0.7 mm 1 mps 467 mmHg 84%
    07:00 +9°C° 0.7 mm 1 mps 467 mmHg 84%
    08:00 +8°C° 0.7 mm 2 mps 468 mmHg 83%
    09:00 +9°C° 0.6 mm 1 mps 468 mmHg 81%
    10:00 +10°C° 0.6 mm 1 mps 468 mmHg 79%
    11:00 +10°C° 0.6 mm 1 mps 468 mmHg 76%
    12:00 +10°C° 0.6 mm 2 mps 468 mmHg 74%
    13:00 +10°C° 0.6 mm 2 mps 468 mmHg 71%
    14:00 +12°C° 0.6 mm 2 mps 468 mmHg 68%
    15:00 +10°C° 1.4 mm 2 mps 467 mmHg 73%
    16:00 +10°C° 1.4 mm 2 mps 466 mmHg 77%
    17:00 +9°C° 1.4 mm 3 mps 466 mmHg 81%
    18:00 +9°C° 0.8 mm 3 mps 466 mmHg 80%
    19:00 +8°C° 0.8 mm 3 mps 466 mmHg 80%
    20:00 +8°C° 0.8 mm 3 mps 467 mmHg 79%
    21:00 +7°C° 0.1 mm 2 mps 467 mmHg 81%
    22:00 +7°C° 0.1 mm 2 mps 467 mmHg 84%
    23:00 +7°C° 0.1 mm 1 mps 467 mmHg 86%

    23 January, Thursday

    Time Temperature Precipitation Wind Pressure Humidity
    00:00 +7°C° 0 mm 1 mps 466 mmHg 87%
    01:00 +6°C° 0 mm 1 mps 466 mmHg 88%
    02:00 +6°C° 0 mm 1 mps 465 mmHg 89%
    03:00 +6°C° 0 mm 1 mps 465 mmHg 87%
    04:00 +5°C° 0 mm 1 mps 465 mmHg 85%
    05:00 +4°C° 0 mm 0 mps 464 mmHg 82%
    06:00 +5°C° 0 mm 0 mps 465 mmHg 73%
    07:00 +6°C° 0 mm 0 mps 466 mmHg 64%
    08:00 +7°C° 0 mm 0 mps 467 mmHg 54%
    09:00 +9°C° 0 mm 1 mps 468 mmHg 49%
    10:00 +10°C° 0 mm 2 mps 469 mmHg 44%
    11:00 +13°C° 0 mm 2 mps 470 mmHg 40%
    12:00 +12°C° 0 mm 3 mps 470 mmHg 40%
    13:00 +13°C° 0 mm 3 mps 470 mmHg 39%
    14:00 +14°C° 0 mm 3 mps 470 mmHg 39%
    15:00 +14°C° 0 mm 4 mps 469 mmHg 43%
    16:00 +13°C° 0 mm 4 mps 469 mmHg 46%
    17:00 +13°C° 0 mm 5 mps 468 mmHg 50%
    18:00 +12°C° 0 mm 4 mps 468 mmHg 56%
    19:00 +11°C° 0 mm 3 mps 467 mmHg 63%
    20:00 +10°C° 0 mm 2 mps 467 mmHg 69%
    21:00 +9°C° 0 mm 2 mps 467 mmHg 74%
    22:00 +9°C° 0 mm 2 mps 467 mmHg 78%
    23:00 +9°C° 0 mm 1 mps 467 mmHg 83%
    Show more